Meacham, OR

12:11 PM PDT on June 25, 2017 (GMT -0700)
Meacham

Weather History for KMEH - February, 2013

Change the Weather History Date:

Thursday, February 7, 2013

  Actual Average Record
Temperature  
Mean Temperature 28 °F -  
Max Temperature 35 °F 35 °F 55 °F (2015)
Min Temperature 18 °F 17 °F -4 °F (2001)
Degree Days  
Heating Degree Days 37    
Moisture  
Dew Point 26 °F    
Average Humidity 84    
Maximum Humidity 93    
Minimum Humidity 64    
Precipitation  
Precipitation 0.05 in - - ()
Sea Level Pressure  
Sea Level Pressure 29.94 in    
Wind  
Wind Speed 0 mph (North)    
Max Wind Speed 4 mph    
Max Gust Speed -    
Visibility 6 miles    
Events Fog , Snow    
Averages and records for this station are not official NWS values.
T = Trace of Precipitation, MM = Missing Value Source: NWS Daily Summary

Daily Weather History Graph

Daily Weather History Graph

Search for Another Location

Airport or City:

Trip Planner

Search our weather history database for the weather conditions in past years. The results will help you decide how hot, cold, wet, or windy it might be!

Date:

Astronomy

Feb. 07, 2013 Rise Set
Actual Time 7:06 AM PST 5:09 PM PST
Civil Twilight 6:35 AM PST 5:40 PM PST
Nautical Twilight 6:00 AM PST 6:15 PM PST
Astronomical Twilight 5:25 AM PST 6:50 PM PST
Moon 4:54 AM PST (2/7) 2:35 PM PST (2/7)
Length of Visible Light 11h 05m
Length of Day
10h 03m
Waning Crescent, 8% of the Moon is Illuminated
Feb 7
Waning Crescent
Feb 9
New
Feb 17
First Quarter
Feb 25
Full
Mar 4
Last Quarter

Hourly Weather History & Observations

Time (PST) Temp. Windchill Dew Point Humidity Pressure Visibility Wind Dir Wind Speed Gust Speed Precip Events Conditions
12:56 AM 35.1 °F - 24.1 °F 64% 29.92 in 10.0 mi Calm Calm - N/A   Clear
1:56 AM 34.0 °F - 25.0 °F 70% 29.91 in 10.0 mi Calm Calm - N/A   Clear
2:56 AM 34.0 °F - 25.0 °F 70% 29.91 in 10.0 mi Calm Calm - N/A   Partly Cloudy
3:56 AM 34.0 °F - 25.0 °F 70% 29.91 in 10.0 mi Calm Calm - N/A   Overcast
4:56 AM 34.0 °F - 26.1 °F 73% 29.92 in 10.0 mi Calm Calm - N/A   Overcast
5:56 AM 34.0 °F - 27.0 °F 75% 29.93 in 7.0 mi Calm Calm - 0.00 in Snow Light Snow
6:56 AM 33.1 °F - 28.0 °F 82% 29.94 in 10.0 mi Calm Calm - 0.00 in   Overcast
7:09 AM 32.0 °F - 28.4 °F 87% 29.89 in 3.0 mi Calm Calm - 0.00 in Snow Light Snow
7:16 AM 32.0 °F - 28.4 °F 87% 29.89 in 2.5 mi Calm Calm - 0.00 in Snow Light Snow
7:27 AM 32.0 °F - 28.4 °F 87% 29.89 in 4.0 mi Calm Calm - 0.00 in Snow Light Snow
7:56 AM 32.0 °F - 28.0 °F 85% 29.96 in 10.0 mi Calm Calm - 0.00 in   Overcast
8:30 AM 32.0 °F - 28.4 °F 87% 29.90 in 1.8 mi Calm Calm - 0.01 in Snow Light Snow
8:42 AM 33.8 °F - 30.2 °F 87% 29.90 in 2.0 mi Calm Calm - 0.01 in Snow Light Snow
8:56 AM 32.0 °F 28.7 °F 30.0 °F 92% 29.97 in 2.0 mi Variable 3.5 mph - 0.01 in Snow Light Snow
9:09 AM 30.2 °F 26.7 °F 28.4 °F 93% 29.91 in 4.0 mi Variable 3.5 mph - 0.00 in   Overcast
9:39 AM 32.0 °F 28.7 °F 28.4 °F 87% 29.90 in 10.0 mi Variable 3.5 mph - 0.00 in   Overcast
9:56 AM 32.0 °F - 28.0 °F 85% 29.96 in 10.0 mi Calm Calm - 0.00 in   Overcast
10:23 AM 32.0 °F 28.7 °F 28.4 °F 87% 29.91 in 10.0 mi Variable 3.5 mph - N/A   Overcast
10:46 AM 32.0 °F - 26.6 °F 80% 29.91 in 10.0 mi Calm Calm - N/A   Overcast
10:56 AM 32.0 °F - 27.0 °F 82% 29.98 in 6.0 mi Calm Calm - 0.00 in Snow Light Snow
11:05 AM 32.0 °F - 28.4 °F 87% 29.91 in 1.5 mi Calm Calm - 0.00 in Snow Light Snow
11:16 AM 32.0 °F - 28.4 °F 87% 29.91 in 0.5 mi Calm Calm - 0.01 in Fog , Snow Snow
11:27 AM 32.0 °F - 28.4 °F 87% 29.91 in 0.8 mi Calm Calm - 0.01 in Snow Light Snow
11:37 AM 32.0 °F - 28.4 °F 87% 29.90 in 1.2 mi Calm Calm - 0.02 in Snow Light Snow
11:56 AM 32.0 °F - 28.9 °F 88% 29.96 in 1.2 mi Calm Calm - 0.02 in Snow Light Snow
12:07 PM 32.0 °F - 28.4 °F 87% 29.90 in 0.8 mi Calm Calm - 0.00 in Snow Light Snow
12:20 PM 32.0 °F - 28.4 °F 87% 29.89 in 1.0 mi Calm Calm - 0.01 in Snow Light Snow
12:43 PM 30.2 °F - 28.4 °F 93% 29.89 in 0.8 mi Calm Calm - 0.01 in Snow Light Snow
12:56 PM 30.9 °F 27.5 °F 28.0 °F 89% 29.95 in 1.5 mi Variable 3.5 mph - 0.01 in Snow Light Snow
12:59 PM 30.2 °F 26.7 °F 28.4 °F 93% 29.89 in 3.0 mi Variable 3.5 mph - 0.00 in Snow Light Snow
1:12 PM 30.2 °F - 26.6 °F 86% 29.89 in 10.0 mi Calm Calm - 0.00 in   Overcast
1:56 PM 30.9 °F - 25.0 °F 79% 29.95 in 10.0 mi Calm Calm - 0.00 in   Overcast
2:36 PM 32.0 °F 28.7 °F 24.8 °F 75% 29.89 in 10.0 mi Variable 3.5 mph - N/A   Overcast
2:56 PM 32.0 °F - 26.1 °F 79% 29.96 in 10.0 mi Calm Calm - N/A   Overcast
3:11 PM 30.2 °F 26.7 °F 24.8 °F 80% 29.89 in 10.0 mi Variable 3.5 mph - N/A   Overcast
3:45 PM 30.2 °F - 26.6 °F 86% 29.89 in 10.0 mi Calm Calm - N/A   Overcast
3:56 PM 30.9 °F - 25.0 °F 79% 29.96 in 10.0 mi Calm Calm - N/A   Overcast
4:56 PM 30.9 °F - 26.1 °F 82% 29.97 in 10.0 mi Calm Calm - N/A   Overcast
5:42 PM 30.2 °F - 24.8 °F 80% 29.92 in 2.5 mi Calm Calm - 0.00 in Snow Light Snow
5:56 PM 28.9 °F - 25.0 °F 85% 30.00 in 2.0 mi Calm Calm - 0.00 in Snow Light Snow
6:06 PM 28.4 °F - 24.8 °F 86% 29.93 in 1.8 mi Calm Calm - 0.01 in Snow Light Snow
6:17 PM 28.4 °F - 26.6 °F 93% 29.93 in 2.5 mi Calm Calm - 0.01 in Snow Light Snow
6:33 PM 28.4 °F - 24.8 °F 86% 29.93 in 1.8 mi Calm Calm - 0.01 in Snow Light Snow
6:47 PM 28.4 °F - 24.8 °F 86% 29.94 in 2.5 mi Calm Calm - 0.01 in Snow Light Snow
6:56 PM 28.0 °F - 25.0 °F 88% 30.01 in 4.0 mi Calm Calm - 0.01 in Snow Light Snow
7:13 PM 28.4 °F - 24.8 °F 86% 29.94 in 3.0 mi Calm Calm - 0.00 in Snow Light Snow
7:56 PM 28.0 °F - 24.1 °F 85% 30.02 in 10.0 mi Calm Calm - 0.00 in   Overcast
8:56 PM 27.0 °F - 24.1 °F 89% 30.02 in 10.0 mi Calm Calm - N/A   Overcast
9:56 PM 25.0 °F - 21.9 °F 88% 30.04 in 10.0 mi Calm Calm - N/A   Partly Cloudy
10:56 PM 21.0 °F - 19.0 °F 92% 30.06 in 10.0 mi Calm Calm - N/A   Clear
11:56 PM 18.0 °F - 15.1 °F 88% 30.09 in 10.0 mi Calm Calm - N/A   Scattered Clouds